Datum;"Wasserstand in cm";"Stationsnummer: 5544202";"Stationsname: Ortrand";"Gew?sser: Pulsnitz";"Fehlwerte: -777"
"04.04.2024 00:00";67
"04.04.2024 00:15";67
"04.04.2024 00:30";67
"04.04.2024 00:45";67
"04.04.2024 01:00";67
"04.04.2024 01:15";67
"04.04.2024 01:30";67
"04.04.2024 01:45";67
"04.04.2024 02:00";67
"04.04.2024 02:15";67
"04.04.2024 02:30";67
"04.04.2024 02:45";67
"04.04.2024 03:00";67
"04.04.2024 03:15";66
"04.04.2024 03:30";66
"04.04.2024 03:45";65
"04.04.2024 04:00";65
"04.04.2024 04:15";65
"04.04.2024 04:30";65
"04.04.2024 04:45";66
"04.04.2024 05:00";66
"04.04.2024 05:15";66
"04.04.2024 05:30";66
"04.04.2024 05:45";67
"04.04.2024 06:00";67
"04.04.2024 06:15";67
"04.04.2024 06:30";67
"04.04.2024 06:45";67
"04.04.2024 07:00";67
"04.04.2024 07:15";67
"04.04.2024 07:30";67
"04.04.2024 07:45";67
"04.04.2024 08:00";68
"04.04.2024 08:15";69
"04.04.2024 08:30";69
"04.04.2024 08:45";68
"04.04.2024 09:00";68
"04.04.2024 09:15";68
"04.04.2024 09:30";68
"04.04.2024 09:45";68
"04.04.2024 10:00";67
"04.04.2024 10:15";67
"04.04.2024 10:30";67
"04.04.2024 10:45";67
"04.04.2024 11:00";67
"04.04.2024 11:15";67
"04.04.2024 11:30";67
"04.04.2024 11:45";67
"04.04.2024 12:00";67
"04.04.2024 12:15";67
"04.04.2024 12:30";67
"04.04.2024 12:45";67
"04.04.2024 13:00";68
"04.04.2024 13:15";68
"04.04.2024 13:30";68
"04.04.2024 13:45";68
"04.04.2024 14:00";68
"04.04.2024 14:15";68
"04.04.2024 14:30";68
"04.04.2024 14:45";68
"04.04.2024 15:00";68
"04.04.2024 15:15";68
"04.04.2024 15:30";68
"04.04.2024 15:45";68
"04.04.2024 16:00";68
"04.04.2024 16:15";68
"04.04.2024 16:30";68
"04.04.2024 16:45";68
"04.04.2024 17:00";68
"04.04.2024 17:15";68
"04.04.2024 17:30";68
"04.04.2024 17:45";68
"04.04.2024 18:00";68
"04.04.2024 18:15";68
"04.04.2024 18:30";68
"04.04.2024 18:45";68
"04.04.2024 19:00";68
"04.04.2024 19:15";68
"04.04.2024 19:30";68
"04.04.2024 19:45";68
"04.04.2024 20:00";68
"04.04.2024 20:15";68
"04.04.2024 20:30";68
"04.04.2024 20:45";68
"04.04.2024 21:00";68
"04.04.2024 21:15";68
"04.04.2024 21:30";68
"04.04.2024 21:45";68
"04.04.2024 22:00";68
"04.04.2024 22:15";68
"04.04.2024 22:30";68
"04.04.2024 22:45";68
"04.04.2024 23:00";68
"04.04.2024 23:15";68
"04.04.2024 23:30";68
"04.04.2024 23:45";68
"05.04.2024 00:00";68
"05.04.2024 00:15";68
"05.04.2024 00:30";68
"05.04.2024 00:45";68
"05.04.2024 01:00";68
"05.04.2024 01:15";68
"05.04.2024 01:30";68
"05.04.2024 01:45";68
"05.04.2024 02:00";68
"05.04.2024 02:15";68
"05.04.2024 02:30";68
"05.04.2024 02:45";68
"05.04.2024 03:00";68
"05.04.2024 03:15";68
"05.04.2024 03:30";68
"05.04.2024 03:45";68
"05.04.2024 04:00";68
"05.04.2024 04:15";68
"05.04.2024 04:30";68
"05.04.2024 04:45";68
"05.04.2024 05:00";68
"05.04.2024 05:15";68
"05.04.2024 05:30";68
"05.04.2024 05:45";68
"05.04.2024 06:00";68
"05.04.2024 06:15";68
"05.04.2024 06:30";68
"05.04.2024 06:45";68
"05.04.2024 07:00";68
"05.04.2024 07:15";68
"05.04.2024 07:30";68
"05.04.2024 07:45";68
"05.04.2024 08:00";68
"05.04.2024 08:15";68
"05.04.2024 08:30";68
"05.04.2024 08:45";68
"05.04.2024 09:00";69
"05.04.2024 09:15";69
"05.04.2024 09:30";69
"05.04.2024 09:45";69
"05.04.2024 10:00";69
"05.04.2024 10:15";69
"05.04.2024 10:30";69
"05.04.2024 10:45";69
"05.04.2024 11:00";69
"05.04.2024 11:15";69
"05.04.2024 11:30";69
"05.04.2024 11:45";69
"05.04.2024 12:00";69
"05.04.2024 12:15";69
"05.04.2024 12:30";69
"05.04.2024 12:45";69
"05.04.2024 13:00";69
"05.04.2024 13:15";69
"05.04.2024 13:30";69
"05.04.2024 13:45";69
"05.04.2024 14:00";69
"05.04.2024 14:15";69
"05.04.2024 14:30";69
"05.04.2024 14:45";69
"05.04.2024 15:00";69
"05.04.2024 15:15";69
"05.04.2024 15:30";69
"05.04.2024 15:45";69
"05.04.2024 16:00";69
"05.04.2024 16:15";69
"05.04.2024 16:30";69
"05.04.2024 16:45";69
"05.04.2024 17:00";69
"05.04.2024 17:15";69
"05.04.2024 17:30";69
"05.04.2024 17:45";69
"05.04.2024 18:00";69
"05.04.2024 18:15";69
"05.04.2024 18:30";68
"05.04.2024 18:45";68
"05.04.2024 19:00";68
"05.04.2024 19:15";68
"05.04.2024 19:30";68
"05.04.2024 19:45";68
"05.04.2024 20:00";68
"05.04.2024 20:15";68
"05.04.2024 20:30";68
"05.04.2024 20:45";68
"05.04.2024 21:00";68
"05.04.2024 21:15";68
"05.04.2024 21:30";68
"05.04.2024 21:45";68
"05.04.2024 22:00";68
"05.04.2024 22:15";68
"05.04.2024 22:30";68
"05.04.2024 22:45";68
"05.04.2024 23:00";68
"05.04.2024 23:15";68
"05.04.2024 23:30";68
"05.04.2024 23:45";68
"06.04.2024 00:00";68
"06.04.2024 00:15";68
"06.04.2024 00:30";68
"06.04.2024 00:45";68
"06.04.2024 01:00";68
"06.04.2024 01:15";68
"06.04.2024 01:30";68
"06.04.2024 01:45";68
"06.04.2024 02:00";68
"06.04.2024 02:15";68
"06.04.2024 02:30";68
"06.04.2024 02:45";68
"06.04.2024 03:00";68
"06.04.2024 03:15";68
"06.04.2024 03:30";68
"06.04.2024 03:45";68
"06.04.2024 04:00";68
"06.04.2024 04:15";68
"06.04.2024 04:30";68
"06.04.2024 04:45";68
"06.04.2024 05:00";68
"06.04.2024 05:15";68
"06.04.2024 05:30";68
"06.04.2024 05:45";68
"06.04.2024 06:00";68
"06.04.2024 06:15";68
"06.04.2024 06:30";68
"06.04.2024 06:45";68
"06.04.2024 07:00";68
"06.04.2024 07:15";68
"06.04.2024 07:30";68
"06.04.2024 07:45";68
"06.04.2024 08:00";68
"06.04.2024 08:15";68
"06.04.2024 08:30";68
"06.04.2024 08:45";68
"06.04.2024 09:00";68
"06.04.2024 09:15";68
"06.04.2024 09:30";68
"06.04.2024 09:45";68
"06.04.2024 10:00";68
"06.04.2024 10:15";68
"06.04.2024 10:30";68
"06.04.2024 10:45";68
"06.04.2024 11:00";69
"06.04.2024 11:15";69
"06.04.2024 11:30";69
"06.04.2024 11:45";69
"06.04.2024 12:00";69
"06.04.2024 12:15";69
"06.04.2024 12:30";69
"06.04.2024 12:45";69
"06.04.2024 13:00";69
"06.04.2024 13:15";69
"06.04.2024 13:30";69
"06.04.2024 13:45";69
"06.04.2024 14:00";69
"06.04.2024 14:15";69
"06.04.2024 14:30";69
"06.04.2024 14:45";69
"06.04.2024 15:00";69
"06.04.2024 15:15";69
"06.04.2024 15:30";69
"06.04.2024 15:45";69
"06.04.2024 16:00";69
"06.04.2024 16:15";69
"06.04.2024 16:30";69
"06.04.2024 16:45";69
"06.04.2024 17:00";69
"06.04.2024 17:15";68
"06.04.2024 17:30";68
"06.04.2024 17:45";68
"06.04.2024 18:00";68
"06.04.2024 18:15";68
"06.04.2024 18:30";68
"06.04.2024 18:45";68
"06.04.2024 19:00";68
"06.04.2024 19:15";68
"06.04.2024 19:30";68
"06.04.2024 19:45";68
"06.04.2024 20:00";68
"06.04.2024 20:15";68
"06.04.2024 20:30";68
"06.04.2024 20:45";68
"06.04.2024 21:00";68
"06.04.2024 21:15";68
"06.04.2024 21:30";68
"06.04.2024 21:45";68
"06.04.2024 22:00";68
"06.04.2024 22:15";68
"06.04.2024 22:30";68
"06.04.2024 22:45";68
"06.04.2024 23:00";68
"06.04.2024 23:15";68
"06.04.2024 23:30";68
"06.04.2024 23:45";68
"07.04.2024 00:00";68
"07.04.2024 00:15";68
"07.04.2024 00:30";68
"07.04.2024 00:45";68
"07.04.2024 01:00";68
"07.04.2024 01:15";68
"07.04.2024 01:30";68
"07.04.2024 01:45";68
"07.04.2024 02:00";68
"07.04.2024 02:15";68
"07.04.2024 02:30";68
"07.04.2024 02:45";68
"07.04.2024 03:00";68
"07.04.2024 03:15";68
"07.04.2024 03:30";68
"07.04.2024 03:45";68
"07.04.2024 04:00";68
"07.04.2024 04:15";68
"07.04.2024 04:30";68
"07.04.2024 04:45";68
"07.04.2024 05:00";68
"07.04.2024 05:15";68
"07.04.2024 05:30";68
"07.04.2024 05:45";68
"07.04.2024 06:00";68
"07.04.2024 06:15";68
"07.04.2024 06:30";68
"07.04.2024 06:45";68
"07.04.2024 07:00";68
"07.04.2024 07:15";68
"07.04.2024 07:30";68
"07.04.2024 07:45";68
"07.04.2024 08:00";68
"07.04.2024 08:15";68
"07.04.2024 08:30";68
"07.04.2024 08:45";69
"07.04.2024 09:00";69
"07.04.2024 09:15";69
"07.04.2024 09:30";69
"07.04.2024 09:45";69
"07.04.2024 10:00";69
"07.04.2024 10:15";69
"07.04.2024 10:30";69
"07.04.2024 10:45";69
"07.04.2024 11:00";69
"07.04.2024 11:15";69
"07.04.2024 11:30";69
"07.04.2024 11:45";69
"07.04.2024 12:00";69
"07.04.2024 12:15";69
"07.04.2024 12:30";69
"07.04.2024 12:45";69
"07.04.2024 13:00";69
"07.04.2024 13:15";69
"07.04.2024 13:30";69
"07.04.2024 13:45";69
"07.04.2024 14:00";69
"07.04.2024 14:15";69
"07.04.2024 14:30";69
"07.04.2024 14:45";69
"07.04.2024 15:00";69
"07.04.2024 15:15";69
"07.04.2024 15:30";69
"07.04.2024 15:45";69
"07.04.2024 16:00";69
"07.04.2024 16:15";69
"07.04.2024 16:30";69
"07.04.2024 16:45";69
"07.04.2024 17:00";69
"07.04.2024 17:15";69
"07.04.2024 17:30";69
"07.04.2024 17:45";68
"07.04.2024 18:00";68
"07.04.2024 18:15";68
"07.04.2024 18:30";68
"07.04.2024 18:45";68
"07.04.2024 19:00";68
"07.04.2024 19:15";68
"07.04.2024 19:30";69
"07.04.2024 19:45";69
"07.04.2024 20:00";69
"07.04.2024 20:15";69
"07.04.2024 20:30";69
"07.04.2024 20:45";69
"07.04.2024 21:00";69
"07.04.2024 21:15";69
"07.04.2024 21:30";69
"07.04.2024 21:45";69
"07.04.2024 22:00";69
"07.04.2024 22:15";69
"07.04.2024 22:30";69
"07.04.2024 22:45";69
"07.04.2024 23:00";69
"07.04.2024 23:15";69
"07.04.2024 23:30";69
"07.04.2024 23:45";69
"08.04.2024 00:00";69
"08.04.2024 00:15";69
"08.04.2024 00:30";69
"08.04.2024 00:45";69
"08.04.2024 01:00";69
"08.04.2024 01:15";69
"08.04.2024 01:30";69
"08.04.2024 01:45";69
"08.04.2024 02:00";69
"08.04.2024 02:15";69
"08.04.2024 02:30";69
"08.04.2024 02:45";69
"08.04.2024 03:00";69
"08.04.2024 03:15";69
"08.04.2024 03:30";69
"08.04.2024 03:45";69
"08.04.2024 04:00";69
"08.04.2024 04:15";69
"08.04.2024 04:30";69
"08.04.2024 04:45";69
"08.04.2024 05:00";69
"08.04.2024 05:15";69
"08.04.2024 05:30";69
"08.04.2024 05:45";69
"08.04.2024 06:00";69
"08.04.2024 06:15";69
"08.04.2024 06:30";69
"08.04.2024 06:45";69
"08.04.2024 07:00";69
"08.04.2024 07:15";69
"08.04.2024 07:30";69
"08.04.2024 07:45";69
"08.04.2024 08:00";69
"08.04.2024 08:15";69
"08.04.2024 08:30";69
"08.04.2024 08:45";69
"08.04.2024 09:00";69
"08.04.2024 09:15";68
"08.04.2024 09:30";68
"08.04.2024 09:45";68
"08.04.2024 10:00";68
"08.04.2024 10:15";69
"08.04.2024 10:30";69
"08.04.2024 10:45";69
"08.04.2024 11:00";69
"08.04.2024 11:15";69
"08.04.2024 11:30";70
"08.04.2024 11:45";70
"08.04.2024 12:00";70
"08.04.2024 12:15";70
"08.04.2024 12:30";70
"08.04.2024 12:45";70
"08.04.2024 13:00";70
"08.04.2024 13:15";70
"08.04.2024 13:30";70
"08.04.2024 13:45";70
"08.04.2024 14:00";70
"08.04.2024 14:15";70
"08.04.2024 14:30";70
"08.04.2024 14:45";70
"08.04.2024 15:00";70
"08.04.2024 15:15";70
"08.04.2024 15:30";70
"08.04.2024 15:45";70
"08.04.2024 16:00";70
"08.04.2024 16:15";70
"08.04.2024 16:30";70
"08.04.2024 16:45";70
"08.04.2024 17:00";70
"08.04.2024 17:15";70
"08.04.2024 17:30";70
"08.04.2024 17:45";70
"08.04.2024 18:00";70
"08.04.2024 18:15";70
"08.04.2024 18:30";70
"08.04.2024 18:45";70
"08.04.2024 19:00";70
"08.04.2024 19:15";70
"08.04.2024 19:30";70
"08.04.2024 19:45";70
"08.04.2024 20:00";70
"08.04.2024 20:15";70
"08.04.2024 20:30";70
"08.04.2024 20:45";70
"08.04.2024 21:00";70
"08.04.2024 21:15";70
"08.04.2024 21:30";70
"08.04.2024 21:45";70
"08.04.2024 22:00";70
"08.04.2024 22:15";70
"08.04.2024 22:30";70
"08.04.2024 22:45";70
"08.04.2024 23:00";70
"08.04.2024 23:15";70
"08.04.2024 23:30";70
"08.04.2024 23:45";70
"09.04.2024 00:00";70
"09.04.2024 00:15";70
"09.04.2024 00:30";70
"09.04.2024 00:45";70
"09.04.2024 01:00";70
"09.04.2024 01:15";70
"09.04.2024 01:30";70
"09.04.2024 01:45";70
"09.04.2024 02:00";70
"09.04.2024 02:15";70
"09.04.2024 02:30";70
"09.04.2024 02:45";70
"09.04.2024 03:00";70
"09.04.2024 03:15";70
"09.04.2024 03:30";70
"09.04.2024 03:45";70
"09.04.2024 04:00";70
"09.04.2024 04:15";70
"09.04.2024 04:30";70
"09.04.2024 04:45";70
"09.04.2024 05:00";70
"09.04.2024 05:15";70
"09.04.2024 05:30";70
"09.04.2024 05:45";70
"09.04.2024 06:00";70
"09.04.2024 06:15";70
"09.04.2024 06:30";70
"09.04.2024 06:45";70
"09.04.2024 07:00";70
"09.04.2024 07:15";70
"09.04.2024 07:30";70
"09.04.2024 07:45";70
"09.04.2024 08:00";70
"09.04.2024 08:15";70
"09.04.2024 08:30";70
"09.04.2024 08:45";70
"09.04.2024 09:00";70
"09.04.2024 09:15";70
"09.04.2024 09:30";70
"09.04.2024 09:45";70
"09.04.2024 10:00";70
"09.04.2024 10:15";70
"09.04.2024 10:30";70
"09.04.2024 10:45";70
"09.04.2024 11:00";70
"09.04.2024 11:15";70
"09.04.2024 11:30";71
"09.04.2024 11:45";71
"09.04.2024 12:00";71
"09.04.2024 12:15";71
"09.04.2024 12:30";71
"09.04.2024 12:45";71
"09.04.2024 13:00";71
"09.04.2024 13:15";71
"09.04.2024 13:30";71
"09.04.2024 13:45";71
"09.04.2024 14:00";71
"09.04.2024 14:15";71
"09.04.2024 14:30";71
"09.04.2024 14:45";71
"09.04.2024 15:00";71
"09.04.2024 15:15";71
"09.04.2024 15:30";71
"09.04.2024 15:45";71
"09.04.2024 16:00";71
"09.04.2024 16:15";71
"09.04.2024 16:30";71
"09.04.2024 16:45";71
"09.04.2024 17:00";70
"09.04.2024 17:15";70
"09.04.2024 17:30";70
"09.04.2024 17:45";70
"09.04.2024 18:00";70
"09.04.2024 18:15";70
"09.04.2024 18:30";70
"09.04.2024 18:45";70
"09.04.2024 19:00";70
"09.04.2024 19:15";70
"09.04.2024 19:30";70
"09.04.2024 19:45";70
"09.04.2024 20:00";70
"09.04.2024 20:15";70
"09.04.2024 20:30";70
"09.04.2024 20:45";70
"09.04.2024 21:00";70
"09.04.2024 21:15";70
"09.04.2024 21:30";70
"09.04.2024 21:45";70
"09.04.2024 22:00";70
"09.04.2024 22:15";70
"09.04.2024 22:30";70
"09.04.2024 22:45";70
"09.04.2024 23:00";70
"09.04.2024 23:15";70
"09.04.2024 23:30";70
"09.04.2024 23:45";70
"10.04.2024 00:00";71
"10.04.2024 00:15";71
"10.04.2024 00:30";71
"10.04.2024 00:45";71
"10.04.2024 01:00";71
"10.04.2024 01:15";71
"10.04.2024 01:30";71
"10.04.2024 01:45";71
"10.04.2024 02:00";71
"10.04.2024 02:15";71
"10.04.2024 02:30";71
"10.04.2024 02:45";71
"10.04.2024 03:00";71
"10.04.2024 03:15";71
"10.04.2024 03:30";71
"10.04.2024 03:45";71
"10.04.2024 04:00";71
"10.04.2024 04:15";71
"10.04.2024 04:30";72
"10.04.2024 04:45";72
"10.04.2024 05:00";72
"10.04.2024 05:15";72
"10.04.2024 05:30";72
"10.04.2024 05:45";72
"10.04.2024 06:00";72
"10.04.2024 06:15";72
"10.04.2024 06:30";72
"10.04.2024 06:45";72
"10.04.2024 07:00";72
"10.04.2024 07:15";73
"10.04.2024 07:30";73
"10.04.2024 07:45";73
"10.04.2024 08:00";73
"10.04.2024 08:15";73
"10.04.2024 08:30";73
"10.04.2024 08:45";73
"10.04.2024 09:00";73
"10.04.2024 09:15";73
"10.04.2024 09:30";73
"10.04.2024 09:45";73
"10.04.2024 10:00";73
"10.04.2024 10:15";73
"10.04.2024 10:30";73
"10.04.2024 10:45";73
"10.04.2024 11:00";73
"10.04.2024 11:15";73
"10.04.2024 11:30";73
"10.04.2024 11:45";73
"10.04.2024 12:00";73
"10.04.2024 12:15";74
"10.04.2024 12:30";74
"10.04.2024 12:45";74
"10.04.2024 13:00";74
"10.04.2024 13:15";74
"10.04.2024 13:30";74
"10.04.2024 13:45";74
"10.04.2024 14:00";74
"10.04.2024 14:15";74
"10.04.2024 14:30";74
"10.04.2024 14:45";74
"10.04.2024 15:00";74
"10.04.2024 15:15";73
"10.04.2024 15:30";74
"10.04.2024 15:45";74
"10.04.2024 16:00";74
"10.04.2024 16:15";74
"10.04.2024 16:30";74
"10.04.2024 16:45";74
"10.04.2024 17:00";74
"10.04.2024 17:15";74
"10.04.2024 17:30";74
"10.04.2024 17:45";74
"10.04.2024 18:00";74
"10.04.2024 18:15";74
"10.04.2024 18:30";75
"10.04.2024 18:45";75
"10.04.2024 19:00";75
"10.04.2024 19:15";75
"10.04.2024 19:30";75
"10.04.2024 19:45";75
"10.04.2024 20:00";75
"10.04.2024 20:15";75
"10.04.2024 20:30";75
"10.04.2024 20:45";75
"10.04.2024 21:00";75
"10.04.2024 21:15";75
"10.04.2024 21:30";75
"10.04.2024 21:45";76
"10.04.2024 22:00";76
"10.04.2024 22:15";76
"10.04.2024 22:30";76
"10.04.2024 22:45";76
"10.04.2024 23:00";76
"10.04.2024 23:15";76
"10.04.2024 23:30";76
"10.04.2024 23:45";77
"11.04.2024 00:00";77
"11.04.2024 00:15";77
"11.04.2024 00:30";77
"11.04.2024 00:45";77
"11.04.2024 01:00";77
"11.04.2024 01:15";77
"11.04.2024 01:30";77
"11.04.2024 01:45";77
"11.04.2024 02:00";77
"11.04.2024 02:15";78
"11.04.2024 02:30";78
"11.04.2024 02:45";78
"11.04.2024 03:00";78
"11.04.2024 03:15";78
"11.04.2024 03:30";79
"11.04.2024 03:45";79
"11.04.2024 04:00";79
"11.04.2024 04:15";79
"11.04.2024 04:30";79
"11.04.2024 04:45";79
"11.04.2024 05:00";79
"11.04.2024 05:15";79
"11.04.2024 05:30";80
"11.04.2024 05:45";80
"11.04.2024 06:00";80
"11.04.2024 06:15";80
"11.04.2024 06:30";80
"11.04.2024 06:45";80
"11.04.2024 07:00";80
"11.04.2024 07:15";80
"11.04.2024 07:30";80
"11.04.2024 07:45";80
"11.04.2024 08:00";80
"11.04.2024 08:15";80
"11.04.2024 08:30";80
"11.04.2024 08:45";80
"11.04.2024 09:00";80
"11.04.2024 09:15";80
"11.04.2024 09:30";80
"11.04.2024 09:45";80
"11.04.2024 10:00";79
"11.04.2024 10:15";79
"11.04.2024 10:30";79
"11.04.2024 10:45";79
"11.04.2024 11:00";79
"11.04.2024 11:15";79
"11.04.2024 11:30";79
"11.04.2024 11:45";79
"11.04.2024 12:00";78
"11.04.2024 12:15";78
"11.04.2024 12:30";78
"11.04.2024 12:45";78
"11.04.2024 13:00";78
"11.04.2024 13:15";78
"11.04.2024 13:30";78
"11.04.2024 13:45";78
"11.04.2024 14:00";78
"11.04.2024 14:15";77
"11.04.2024 14:30";77
"11.04.2024 14:45";77
"11.04.2024 15:00";77
"11.04.2024 15:15";77
"11.04.2024 15:30";77
"11.04.2024 15:45";77
"11.04.2024 16:00";77
"11.04.2024 16:15";77
"11.04.2024 16:30";77
"11.04.2024 16:45";77
"11.04.2024 17:00";77
"11.04.2024 17:15";77
"11.04.2024 17:30";77
"11.04.2024 17:45";77
"11.04.2024 18:00";77
"11.04.2024 18:15";77
"11.04.2024 18:30";77
"11.04.2024 18:45";77
"11.04.2024 19:00";77
"11.04.2024 19:15";77
"11.04.2024 19:30";77
"11.04.2024 19:45";77
"11.04.2024 20:00";77
"11.04.2024 20:15";76
"11.04.2024 20:30";76
"11.04.2024 20:45";76
"11.04.2024 21:00";76
"11.04.2024 21:15";76
"11.04.2024 21:30";76
"11.04.2024 21:45";76
"11.04.2024 22:00";76
"11.04.2024 22:15";76
"11.04.2024 22:30";76
"11.04.2024 22:45";76
"11.04.2024 23:00";76
"11.04.2024 23:15";76
"11.04.2024 23:30";76
"11.04.2024 23:45";76
"12.04.2024 00:00";76
"12.04.2024 00:15";76
"12.04.2024 00:30";76
"12.04.2024 00:45";76
"12.04.2024 01:00";76
"12.04.2024 01:15";75
"12.04.2024 01:30";75
"12.04.2024 01:45";75
"12.04.2024 02:00";75
"12.04.2024 02:15";75
"12.04.2024 02:30";75
"12.04.2024 02:45";75
"12.04.2024 03:00";75
"12.04.2024 03:15";75
"12.04.2024 03:30";75
"12.04.2024 03:45";75
"12.04.2024 04:00";75
"12.04.2024 04:15";75
"12.04.2024 04:30";75
"12.04.2024 04:45";75
"12.04.2024 05:00";75
"12.04.2024 05:15";75
"12.04.2024 05:30";75
"12.04.2024 05:45";75
"12.04.2024 06:00";75
"12.04.2024 06:15";75
"12.04.2024 06:30";75
"12.04.2024 06:45";75
"12.04.2024 07:00";75
"12.04.2024 07:15";75
"12.04.2024 07:30";75
"12.04.2024 07:45";75
"12.04.2024 08:00";75
"12.04.2024 08:15";75
"12.04.2024 08:30";75
"12.04.2024 08:45";75
"12.04.2024 09:00";75
"12.04.2024 09:15";75
"12.04.2024 09:30";75
"12.04.2024 09:45";75
"12.04.2024 10:00";75
"12.04.2024 10:15";75
"12.04.2024 10:30";75
"12.04.2024 10:45";75
"12.04.2024 11:00";75
"12.04.2024 11:15";75
"12.04.2024 11:30";75
"12.04.2024 11:45";75
"12.04.2024 12:00";75
"12.04.2024 12:15";75
"12.04.2024 12:30";75
"12.04.2024 12:45";75
"12.04.2024 13:00";75
"12.04.2024 13:15";75
"12.04.2024 13:30";75
"12.04.2024 13:45";75
"12.04.2024 14:00";75
"12.04.2024 14:15";75
"12.04.2024 14:30";75
"12.04.2024 14:45";75
"12.04.2024 15:00";75
"12.04.2024 15:15";75
"12.04.2024 15:30";75
"12.04.2024 15:45";75
"12.04.2024 16:00";75
"12.04.2024 16:15";75
"12.04.2024 16:30";75
"12.04.2024 16:45";75
"12.04.2024 17:00";75
"12.04.2024 17:15";75
"12.04.2024 17:30";75
"12.04.2024 17:45";75
"12.04.2024 18:00";75
"12.04.2024 18:15";75
"12.04.2024 18:30";75
"12.04.2024 18:45";75
"12.04.2024 19:00";75
"12.04.2024 19:15";75
"12.04.2024 19:30";75
"12.04.2024 19:45";75
"12.04.2024 20:00";75
"12.04.2024 20:15";75
"12.04.2024 20:30";75
"12.04.2024 20:45";75
"12.04.2024 21:00";75
"12.04.2024 21:15";75
"12.04.2024 21:30";75
"12.04.2024 21:45";75
"12.04.2024 22:00";75
"12.04.2024 22:15";75
"12.04.2024 22:30";75
"12.04.2024 22:45";75
"12.04.2024 23:00";75
"12.04.2024 23:15";75
"12.04.2024 23:30";75
"12.04.2024 23:45";75
"13.04.2024 00:00";74
"13.04.2024 00:15";74
"13.04.2024 00:30";74
"13.04.2024 00:45";74
"13.04.2024 01:00";74
"13.04.2024 01:15";74
"13.04.2024 01:30";74
"13.04.2024 01:45";74
"13.04.2024 02:00";74
"13.04.2024 02:15";74
"13.04.2024 02:30";74
"13.04.2024 02:45";74
"13.04.2024 03:00";74
"13.04.2024 03:15";74
"13.04.2024 03:30";74
"13.04.2024 03:45";74
"13.04.2024 04:00";74
"13.04.2024 04:15";74
"13.04.2024 04:30";74
"13.04.2024 04:45";74
"13.04.2024 05:00";74
"13.04.2024 05:15";74
"13.04.2024 05:30";74
"13.04.2024 05:45";74
"13.04.2024 06:00";74
"13.04.2024 06:15";74
"13.04.2024 06:30";74
"13.04.2024 06:45";74
"13.04.2024 07:00";74
"13.04.2024 07:15";74
"13.04.2024 07:30";74
"13.04.2024 07:45";74
"13.04.2024 08:00";74
"13.04.2024 08:15";74
"13.04.2024 08:30";74
"13.04.2024 08:45";74
"13.04.2024 09:00";74
"13.04.2024 09:15";74
"13.04.2024 09:30";74
"13.04.2024 09:45";75
"13.04.2024 10:00";75
"13.04.2024 10:15";75
"13.04.2024 10:30";75
"13.04.2024 10:45";75
"13.04.2024 11:00";75
"13.04.2024 11:15";75
"13.04.2024 11:30";75
"13.04.2024 11:45";75
"13.04.2024 12:00";75
"13.04.2024 12:15";75
"13.04.2024 12:30";75
"13.04.2024 12:45";75
"13.04.2024 13:00";75
"13.04.2024 13:15";75
"13.04.2024 13:30";75
"13.04.2024 13:45";75
"13.04.2024 14:00";75
"13.04.2024 14:15";75
"13.04.2024 14:30";75
"13.04.2024 14:45";75
"13.04.2024 15:00";75
"13.04.2024 15:15";75
"13.04.2024 15:30";75
"13.04.2024 15:45";75
"13.04.2024 16:00";75
"13.04.2024 16:15";75
"13.04.2024 16:30";75
"13.04.2024 16:45";74
"13.04.2024 17:00";74
"13.04.2024 17:15";74
"13.04.2024 17:30";74
"13.04.2024 17:45";74
"13.04.2024 18:00";74
"13.04.2024 18:15";74
"13.04.2024 18:30";74
"13.04.2024 18:45";74
"13.04.2024 19:00";74
"13.04.2024 19:15";74
"13.04.2024 19:30";74
"13.04.2024 19:45";74
"13.04.2024 20:00";74
"13.04.2024 20:15";74
"13.04.2024 20:30";74
"13.04.2024 20:45";74
"13.04.2024 21:00";74
"13.04.2024 21:15";74
"13.04.2024 21:30";74
"13.04.2024 21:45";74
"13.04.2024 22:00";74
"13.04.2024 22:15";74
"13.04.2024 22:30";74
"13.04.2024 22:45";74
"13.04.2024 23:00";74
"13.04.2024 23:15";74
"13.04.2024 23:30";74
"13.04.2024 23:45";74
"14.04.2024 00:00";74
"14.04.2024 00:15";74
"14.04.2024 00:30";74
"14.04.2024 00:45";74
"14.04.2024 01:00";74
"14.04.2024 01:15";74
"14.04.2024 01:30";74
"14.04.2024 01:45";74
"14.04.2024 02:00";74
"14.04.2024 02:15";74
"14.04.2024 02:30";74
"14.04.2024 02:45";74
"14.04.2024 03:00";74
"14.04.2024 03:15";74
"14.04.2024 03:30";74
"14.04.2024 03:45";74
"14.04.2024 04:00";74
"14.04.2024 04:15";74
"14.04.2024 04:30";74
"14.04.2024 04:45";74
"14.04.2024 05:00";74
"14.04.2024 05:15";74
"14.04.2024 05:30";74
"14.04.2024 05:45";74
"14.04.2024 06:00";74
"14.04.2024 06:15";74
"14.04.2024 06:30";74
"14.04.2024 06:45";74
"14.04.2024 07:00";74
"14.04.2024 07:15";74
"14.04.2024 07:30";74
"14.04.2024 07:45";74
"14.04.2024 08:00";74
"14.04.2024 08:15";74
"14.04.2024 08:30";74
"14.04.2024 08:45";74
"14.04.2024 09:00";74
"14.04.2024 09:15";74
"14.04.2024 09:30";74
"14.04.2024 09:45";75
"14.04.2024 10:00";75
"14.04.2024 10:15";75
"14.04.2024 10:30";75
"14.04.2024 10:45";75
"14.04.2024 11:00";75
"14.04.2024 11:15";75
"14.04.2024 11:30";75
"14.04.2024 11:45";75
"14.04.2024 12:00";75
"14.04.2024 12:15";75
"14.04.2024 12:30";75
"14.04.2024 12:45";75
"14.04.2024 13:00";75
"14.04.2024 13:15";75
"14.04.2024 13:30";75
"14.04.2024 13:45";75
"14.04.2024 14:00";75
"14.04.2024 14:15";75
"14.04.2024 14:30";75
"14.04.2024 14:45";75
"14.04.2024 15:00";75
"14.04.2024 15:15";75
"14.04.2024 15:30";75
"14.04.2024 15:45";75
"14.04.2024 16:00";75
"14.04.2024 16:15";75
"14.04.2024 16:30";74
"14.04.2024 16:45";74
"14.04.2024 17:00";74
"14.04.2024 17:15";74
"14.04.2024 17:30";74
"14.04.2024 17:45";74
"14.04.2024 18:00";74
"14.04.2024 18:15";74
"14.04.2024 18:30";74
"14.04.2024 18:45";74
"14.04.2024 19:00";74
"14.04.2024 19:15";74
"14.04.2024 19:30";74
"14.04.2024 19:45";74
"14.04.2024 20:00";74
"14.04.2024 20:15";74
"14.04.2024 20:30";74
"14.04.2024 20:45";74
"14.04.2024 21:00";74
"14.04.2024 21:15";74
"14.04.2024 21:30";74
"14.04.2024 21:45";74
"14.04.2024 22:00";74
"14.04.2024 22:15";74
"14.04.2024 22:30";74
"14.04.2024 22:45";74
"14.04.2024 23:00";74
"14.04.2024 23:15";74
"14.04.2024 23:30";74
"14.04.2024 23:45";74
"15.04.2024 00:00";74
"15.04.2024 00:15";74
"15.04.2024 00:30";74
"15.04.2024 00:45";74
"15.04.2024 01:00";74
"15.04.2024 01:15";74
"15.04.2024 01:30";74
"15.04.2024 01:45";74
"15.04.2024 02:00";74
"15.04.2024 02:15";74
"15.04.2024 02:30";74
"15.04.2024 02:45";74
"15.04.2024 03:00";74
"15.04.2024 03:15";74
"15.04.2024 03:30";74
"15.04.2024 03:45";74
"15.04.2024 04:00";74
"15.04.2024 04:15";74
"15.04.2024 04:30";74
"15.04.2024 04:45";74
"15.04.2024 05:00";75
"15.04.2024 05:15";75
"15.04.2024 05:30";75
"15.04.2024 05:45";75
"15.04.2024 06:00";75
"15.04.2024 06:15";75
"15.04.2024 06:30";75
"15.04.2024 06:45";75
"15.04.2024 07:00";75